Overview Statistics Trail Chart Weather Telemetry Raw packets
 

This is the latest recevied weather packets stored in our database for station/object AB1AU. If no packets are shown the sender has not sent any weather packets the latest 10 day(s).

<< 8 9 10 11 12 13 14 >>
Time Temp. Humidity Pressure Rain* Wind** Luminosity Snow
1788561876 22.22° C 73% 1009.1 hPa 0 mm - 4 W/m² -
1788561576 22.78° C 74% 1009 hPa 0 mm - 5 W/m² -
1788561275 22.78° C 73% 1009 hPa 0 mm - 7 W/m² -
1788560971 22.78° C 72% 1008.7 hPa 0 mm - 9 W/m² -
1788560666 23.33° C 71% 1008.9 hPa 0 mm - 10 W/m² -
1788560366 23.33° C 70% 1008.6 hPa 0 mm - 13 W/m² -
1788560061 23.33° C 69% 1008.6 hPa 0 mm - 16 W/m² -
1788559756 23.33° C 70% 1008.5 hPa 0 mm - 17 W/m² -
1788559455 23.33° C 70% 1008.2 hPa 0 mm - 20 W/m² -
1788559151 22.78° C 71% 1008.3 hPa 0 mm - 24 W/m² -
1788558846 22.78° C 71% 1008.4 hPa 0 mm - 20 W/m² -
1788558542 23.33° C 72% 1008.3 hPa 0 mm - 16 W/m² -
1788558237 23.33° C 72% 1008.3 hPa 0 mm - 17 W/m² -
1788557936 23.33° C 75% 1008.4 hPa 0 mm - 18 W/m² -
1788557631 23.33° C 75% 1008.5 hPa 0 mm - 14 W/m² -
1788557328 23.89° C 75% 1008.3 hPa 0 mm - 11 W/m² -
1788557027 23.89° C 74% 1008.1 hPa 0 mm - 11 W/m² -
1788556722 23.89° C 73% 1008 hPa 0 mm - 22 W/m² -
1788556417 23.89° C 73% 1008 hPa 0 mm - 29 W/m² -
1788556112 23.89° C 72% 1008.1 hPa 0 mm - 37 W/m² -
1788555812 23.89° C 71% 1008.2 hPa 0 mm - 34 W/m² -
1788555508 23.89° C 71% 1008.3 hPa 0 mm - 23 W/m² -
1788555203 23.89° C 73% 1008.3 hPa 0 mm - 20 W/m² -
1788554901 23.89° C 74% 1008.3 hPa 0 mm - 25 W/m² -
1788554596 24.44° C 74% 1008.1 hPa 0 mm - 21 W/m² -

* Rain latest hour (hover to see other rain measurements)
** Current wind speed in m/s (hover to see current wind gust speed)